SM7SJR-13 Weather Reports


Display with metric or nautical units.
time (UTC)temp
F
wind
direction
speed
MPH
gust
MPH
rain 1hr
in
rain 24hr
in
rain mn
in
humidity
%
barometer
mb
20260505031503 36 229 3.0 6.0 0.00 0.08 0.00 93 1006.8
20260505030004 36 223 5.0 6.0 0.00 0.08 0.00 93 1006.7
20260505024504 36 230 3.0 5.0 0.00 0.08 0.00 92 1006.7
20260505023004 37 229 3.0 6.0 0.00 0.09 0.00 91 1006.7
20260505014504 40 246 3.0 6.0 0.00 0.09 0.00 87 1006.7
20260505011503 43 247 5.0 9.0 0.00 0.09 0.00 85 1006.7
20260505010004 43 260 6.0 12.0 0.00 0.09 0.00 83 1006.6
20260505004504 44 263 3.0 7.0 0.00 0.09 0.00 80 1006.6
20260505003004 45 257 5.0 8.0 0.00 0.09 0.00 79 1006.7
20260505000003 46 248 6.0 9.0 0.00 0.09 0.00 76 1006.7
20260504234504 46 257 5.0 10.0 0.00 0.09 0.00 75 1006.7
20260504231503 47 255 7.0 12.0 0.00 0.09 0.00 73 1006.8
20260504230005 47 247 7.0 12.0 0.00 0.09 0.00 72 1006.9
20260504224503 47 251 5.0 9.0 0.00 0.09 0.00 71 1006.9
20260504223004 48 252 4.0 10.0 0.00 0.09 0.00 69 1007.1
20260504221504 49 260 7.0 12.0 0.00 0.09 0.00 68 1007.1
20260504220003 49 249 6.0 10.0 0.00 0.09 0.00 68 1007.1
20260504214503 50 246 4.0 9.0 0.00 0.09 0.09 68 1007.1
20260504213004 51 231 5.0 9.0 0.00 0.09 0.09 66 1007.1
20260504210004 52 252 7.0 12.0 0.00 0.09 0.09 63 1006.5
20260504203004 53 255 6.0 12.0 0.00 0.09 0.09 60 1006.5
20260504201503 54 254 6.0 13.0 0.00 0.09 0.09 58 1006.5
20260504200004 55 249 8.0 14.0 0.00 0.09 0.09 58 1006.5
20260504194504 55 253 7.0 14.0 0.00 0.09 0.09 57 1005.9
20260504191503 56 237 5.0 9.0 0.00 0.09 0.09 56 1005.9
20260504190004 57 242 6.0 12.0 0.00 0.09 0.09 54 1005.9
20260504183004 59 243 7.0 12.0 0.00 0.09 0.09 52 1005.5
20260504181503 60 236 6.0 15.0 0.00 0.09 0.09 49 1005.4
20260504180004 60 233 9.0 15.0 0.00 0.09 0.09 48 1005.2
20260504174503 61 242 9.0 20.0 0.00 0.09 0.09 45 1005.0
20260504173004 62 242 6.0 18.0 0.00 0.09 0.09 42 1004.8
20260504171504 63 237 9.0 17.0 0.00 0.09 0.09 40 1004.7
20260504081504 56 271 3.0 6.0 0.00 0.08 0.08 90 1004.2
20260504050003 47 307 0.0 3.0 0.06 0.08 0.08 96 1003.5
20260504044504 47 309 1.0 3.0 0.05 0.07 0.07 96 1003.4
20260504043004 47 317 0.0 3.0 0.00 0.02 0.02 96 1003.7
20260504041503 46 302 0.0 5.0 0.01 0.02 0.02 96 1003.6
20260504040004 46 307 3.0 5.0 0.01 0.02 0.02 96 1003.6
20260504034503 46 332 3.0 5.0 0.01 0.02 0.02 95 1003.6
20260504033004 46 346 0.0 0.0 0.02 0.02 0.02 95 1003.6